Location: Newark
(6.1167°N, 1.2167°E)
Time: 12:48:04
(UTC+00:00)

Hubble Space Telescope - Pass Details

Date: 27 October 2019
Orbit: 536 x 540 km, 28.5° (Epoch: 12 November)

Event Time Altitude Azimuth Distance (km) Brightness Sun altitude
Exits shadow 05:01:09 10° 314° (NW) 1,764 2.9 -10.6°
Maximum altitude 05:02:44 12° 338° (NNW) 1,642 2.9 -10.2°
Drops below altitude 10° 05:04:24 10° 2° (N) 1,773 3.3 -9.8°
Sets 05:07:57 0° 33° (NNE) 2,662 4.6 -8.9°
